Home   Weather   Brussels   Past weeks
Flag for Belgium

Past Weather in Brussels, Belgium — Yesterday and Last 2 Weeks

Now
66 °F

Passing clouds.


Feels Like: 66 °F
Forecast: 72 / 51 °F
Wind: 5 mph from Northeast

Location: Brussels National Airport

Current Time: Apr 20, 2019 at 12:40:04 pm

Latest Report: Apr 20, 2019 at 11:50 am


Visibility: N/A

Pressure: 30.39 "Hg

Humidity: 52%

Dew Point: 48 °F

Location of BrusselsLocation

Past Weather in Brussels — Graph

°F

Brussels Temperature Yesterday

Maximum temperature yesterday: 73 °F (at 2:50 pm)
Minimum temperature yesterday: 48 °F (at 7:20 am)
Average temperature yesterday: 61 °F

High & Low Weather Summary for the Past Weeks

 TemperatureHumidityPressure
High73 °F (Apr 19, 2:50 pm)100% (Apr 9, 1:20 am)30.39 "Hg (Apr 9, 1:20 am)
Low27 °F (Apr 13, 6:50 am)28% (Apr 18, 1:50 pm)29.62 "Hg (Apr 6, 5:50 pm)
Average49 °F70%30.05 "Hg
* Reported Apr 5 11:20 am — Apr 20 11:20 am, Brussels. Weather by CustomWeather, © 2019

Note: Actual official high and low records may vary slightly from our data, if they occured in-between our weather recording intervals... More about our weather records

Advertising

Brussels Weather History for the Previous 24 Hours

Scroll right to see more
 ConditionsComfort  
Time TempWeatherWind HumidityBarometerVisibility
11:20 am
Sat, Apr 20
64 °FSunny.5 mph56%30.39 "Hg10 mi
10:50 am63 °FPassing clouds.3 mph52%30.39 "HgN/A
10:20 am59 °FPassing clouds.6 mph59%30.39 "HgN/A
9:50 am57 °FSunny.2 mph63%30.39 "Hg10 mi
9:20 am54 °FPassing clouds.5 mph67%30.39 "HgN/A
8:50 am52 °FSunny.2 mph72%30.39 "Hg10 mi
8:20 am52 °FSunny.1 mph72%30.39 "Hg10 mi
7:50 am50 °FSunny.1 mph76%30.36 "Hg10 mi
7:20 am46 °FSunny.2 mph82%30.36 "Hg10 mi
6:50 am46 °FSunny.1 mph76%30.36 "Hg10 mi
6:20 am46 °FClear.2 mph71%30.36 "Hg10 mi
5:50 am48 °FClear.No wind71%30.36 "Hg10 mi
5:20 am45 °FClear.2 mph81%30.36 "Hg10 mi
4:50 am54 °FClear.3 mph58%30.36 "Hg10 mi
4:20 am54 °FClear.3 mph58%30.36 "Hg10 mi
3:50 am54 °FClear.3 mph58%30.36 "Hg10 mi
3:20 am54 °FClear.2 mph67%30.36 "Hg10 mi
2:50 am55 °FClear.3 mph51%30.36 "Hg10 mi
2:20 am55 °FClear.3 mph55%30.36 "Hg10 mi
1:50 am59 °FClear.2 mph45%30.36 "Hg10 mi
1:20 am59 °FClear.2 mph45%30.36 "Hg10 mi
12:50 am59 °FClear.3 mph48%30.36 "Hg10 mi
12:20 am59 °FClear.3 mph48%30.36 "Hg10 mi
11:50 pm
Fri, Apr 19
59 °FClear.5 mph48%30.36 "Hg10 mi
11:20 pm61 °FClear.3 mph42%30.36 "Hg10 mi
10:50 pm59 °FClear.3 mph45%30.33 "Hg10 mi
10:20 pm63 °FClear.5 mph37%30.33 "Hg10 mi
9:50 pm64 °FClear.3 mph34%30.33 "Hg10 mi
9:20 pm64 °FClear.2 mph37%30.33 "Hg10 mi
8:50 pm64 °FClear.5 mph40%30.33 "Hg10 mi
7:50 pm68 °FSunny.6 mph40%30.30 "Hg10 mi
7:20 pm72 °FSunny.6 mph38%30.30 "Hg10 mi
6:50 pm73 °FSunny.3 mph41%30.30 "Hg10 mi
6:20 pm73 °FSunny.5 mph38%30.30 "Hg10 mi
5:50 pm73 °FPassing clouds.6 mph36%30.30 "HgN/A
5:20 pm73 °FPassing clouds.5 mph36%30.30 "HgN/A
4:50 pm73 °FPassing clouds.5 mph36%30.30 "HgN/A
4:20 pm73 °FPassing clouds.7 mph33%30.30 "HgN/A
3:50 pm73 °FPassing clouds.6 mph36%30.30 "HgN/A
3:20 pm73 °FPassing clouds.6 mph33%30.30 "HgN/A
2:50 pm73 °FPassing clouds.7 mph31%30.33 "HgN/A
1:50 pm72 °FPassing clouds.10 mph33%30.33 "HgN/A
1:20 pm70 °FPassing clouds.9 mph35%30.33 "HgN/A
12:50 pm70 °FPassing clouds.7 mph40%30.33 "HgN/A
12:20 pm68 °FSunny.7 mph43%30.33 "Hg10 mi
Weather by CustomWeather, © 2019

See weather overview